Location: Elaine Barite Prospect
(34.1431°N, 106.7922°W)
Time: 05:35:28
(UTC+00:00)

RUBIN 8/PSLV - Pass Details

Date: 13 December 2025
Orbit: 593 x 629 km, 98.1° (Epoch: 12 January)

Event Time Altitude Azimuth Distance (km) Brightness Sun altitude
Rises 12:42:07 0° 9° (N) 2,883 7.9 -16.6°
Reaches altitude 10° 12:44:20 10° 7° (N) 1,968 7.0 -16.1°
Maximum altitude 12:48:34 69° 284° (WNW) 650 4.4 -15.3°
Drops below altitude 10° 12:52:45 10° 202° (SSW) 1,934 7.1 -14.5°
Sets 12:54:54 0° 199° (SSW) 2,828 7.9 -14.1°
